Погода в Сухиничи

Погода в Сухиничи : погода сейчас, прогноз погоды и архив. Всё, что Вы хотите узнать о погоде в Сухиничи!

Хотите узнать прогноз погоды в Сухиничи? Тогда Вам сюда: Погода в Сухиничи

Поиск расширенной информации на нашем сайте:

Другие новости

Новости СМИ2

Главная страница сайта

Новости сайта

03.07.2017

Напоминаем, что на нашем специализированном сайте Метеоцентр.Азия вы можете получить высокодетализированные автоматические прогнозы погоды по пунктам России, СНГ и мира в авиационном формате (включающие направление и скорость ветра, видимость, явления погоды, количество и форму облачности, нижнюю и верхнюю границу облачности).


Погода в Сухиничи - сегодня

Время (UTC), дата Ветер
(°,м/с) 
Видим.   Явления Облачность Т
(°С)
Тd
(°С)
f(%) Тe
(°С)
Pmin
(гПа)
dP
(гПа)
Po
(мм)
O2
(г/м3)
Тmin Tmax R s Состояние
почвы
21 14.10.18 280 (З) 12000 м    ясно 
+9.6 +8.1 90 +10  1029.4  0.2  750  291           
00 15.10.18 250 (З) 6000 м  дымка  ясно 
+7.4 +6.7 95 +8  1030  0.4  751  293           
06 15.10.18 250 (З) 0600 м  туман  ?/?  
+7.2 +7.2 100 +7  1030.2  0.2  751  294  +5        влажная 
09 15.10.18 270 (З) 26000 м  {туман}  ясно 
+16.4 +10.8 69 +20  1029.8  0.4  751  283           
15 15.10.18 тихо ()   28000 м    ясно 
+12.9 +7.4 69 +13  1029.1  -0.3  750  287           
21 15.10.18 250 (З) 10 км    ясно 
+7.9 +6.5 91 +9  1029.5  0.1  750  293           
00 16.10.18 230 (ЮЗ) 8000 м  дымка  ясно 
+5.2 +4.6 96 +6  1030  0.1  750  296           
09 16.10.18 260 (З) 29000 м  {туман}  8/0 верхняя 
[Ci]
+14.3 +8.1 66 +15  1029  750  286           
15 16.10.18 240 (ЮЗ) 29000 м    1/0 верхняя 
[Ci fib]
+11.1 +6.2 72 +12  1027.4  -0.6  749  289           
21 16.10.18 260 (З) 10 км    ясно 
+7.9 +6.9 93 +9  1027.2  -0.1  749  292           
00 17.10.18 240 (ЮЗ) 8000 м  дымка  ясно 
+6.6 +5.9 95 +8  1027.4  749  294           
09 17.10.18 280 (З) 40000 м    ясно 
+17.2 +8.7 57 +18  1026.9  0.1  749  282           
12 17.10.18 260 (З) 40000 м    ясно 
+19.8 +7.8 46 +21  1026.1  -0.5  749  280           
15 17.10.18 тихо ()   30000 м    ясно 
+14.7 +7.3 61 +15  1026.2  -0.4  748  285           
21 17.10.18 250 (З) 12000 м    ясно 
+9.1 +7.3 88 +10  1026.6  0.1  748  291           
00 18.10.18 230 (ЮЗ) 10 км    ясно 
+8.2 +7.3 94 +9  1026.4  -0.3  748  291           
09 18.10.18 270 (З) 30000 м    ясно 
+17.4 +9.4 59 +18  1024.5  -0.5  747  281           
12 18.10.18 270 (З) 40000 м    ясно 
+20 +7.4 44 +20  1022.7  -0.5  746  279           
15 18.10.18 220 (ЮЗ) 30000 м    1/1 2000 м средняя 
[Ac lent]
+14.3 +7.2 62 +16  1022  -1.2  745  284           
21 18.10.18 240 (ЮЗ) 12000 м    ясно 
+9.7 +8.2 90 +11  1021.1  -0.6  744  288           
00 19.10.18 220 (ЮЗ) 15000 м    9/9 2000 м средняя 
[Ac As]
+11.7 +9.1 84 +13  1019.7  -1.1  743  286           
09 19.10.18 260 (З) 40000 м    8/0 верхняя 
[Ci]
+18.3 +10.4 60 +22  1016.9  -0.7  742  278           
12 19.10.18 290 (З) 40000 м    8/3 2000 м средняя, верхняя 
[Ac trans|Ci]
+18.4 +9.9 58 +20  1015.9  -1  741  278           
15 19.10.18 тихо ()   28000 м    ясно 
+13 +7.4 69 +13  1016.4  0.1  741  284           
21 19.10.18 010 (С) 12000 м    9/9 2000 м средняя 
[Ac As]
+9.3 +7.5 89 +9  1018.8  1.3  743  288           
Время (UTC), дата Ветер
(°,м/с) 
Видим.   Явления Облачность Т
(°С)
Тd
(°С)
f(%) Тe
(°С)
Pmin
(гПа)
dP
(гПа)
Po
(мм)
O2
(г/м3)
Тmin Tmax R s Состояние
почвы

Для получения пояснительной информации подведите курсор к названию столбца.

ПОГОДА в Сухиничи - архив

Всё, что Вы хотите узнать о погоде в Сухиничи - удобно и подробно!

Выберите нужную дату (начиная с 1 января 2015* года) и нажмите кнопку "Найти".
Будут отображены архивные сводки погоды по пункту Сухиничи, начиная с указанной даты.


Отображать данные в формате CSV (для использования в таблицах Excel)


Внимание! Наш архив погоды предназначен исключительно для личного некоммерческого использования в познавательных целях. Если Вам необходимы официальные справки о состоянии погоды (для производственных, юридических, коммерческих и т.п. целей), обращайтесь в органы Росгидромета.

*Примечание: данная дата относится к архиву по метеостанциям СССР (Россия, СНГ, Балтия).
Архив по метеостанциям Зарубежной Европы и Азии (кроме Китая) хранится 10 дней, по другим регионам земного шара (Китай, Африка, Америка, Австралия, Океания) - 1 день.

Сухиничи - район местоположения метеостанции


Название, широта, долгота, высота метеостанции:
Сухиничи 54.1°ш. 35.3°д. 238 м над ур. моря [Российская Федерация]

Дополнительная информация

В oтличие oт бoльшинства пoгoдных сайтoв мы публикуем пoдрoбную метеoинфoрмацию в детальнoм прoфессиoнальнoм фoрмате.

Характеристики температуры и влажнoсти вoздуха измеряются на высoте 2 м в тени вдали oт зданий и деревьев.
Скoрoсть ветра измеряется на высoте 10 м (на урoвне рoста челoвека скoрoсть ветра ниже в 1.5-2 раза). Если метеoстанция нахoдится в гoрoде или в лесу, тo скoрoсть ветра занижена на 2-4 м/с пo сравнению с oткрытым местoм. Скoрoсть ветра над акватoриями крупных рек и oзёр, а также на вершинах хoлмoв на 2-5 м/с выше, чем в oбычных услoвиях.
Атмoсфернoе давление в разных тoчках местнoсти мoжет значительнo oтличаться oт давления на метеoстанции, в зависимoсти oт услoвий рельефа (при пoдъёме на 10 м давление пoнижается примернo на 1 мм рт.ст.).